Weather History for Watford City, ND

Change the Weather History Date:

Thursday, November 14, 2013

  Actual Average (KISN) Record (KISN)
Temperature  
Mean Temperature 34 °F 28 °F  
Max Temperature 48 °F 39 °F 67 °F (1899)
Min Temperature 19 °F 17 °F -13 °F (1940)
Degree Days  
Heating Degree Days 30 37  
Month to date heating degree days 466  
Since 1 July heating degree days 1493  
Cooling Degree Days 0 0  
Month to date cooling degree days 0  
Year to date cooling degree days 456  
Moisture  
Dew Point 29 °F    
Average Humidity 82    
Maximum Humidity 100    
Minimum Humidity 54    
Precipitation  
Precipitation 0.00 in 0.02 in 0.26 in (1955)
Month to date precipitation 0.35  
Year to date precipitation 13.45  
Sea Level Pressure  
Sea Level Pressure 29.80 in    
Wind  
Wind Speed 7 mph (WSW)    
Max Wind Speed 13 mph    
Max Gust Speed 20 mph    
Visibility 10 miles    
Events      
T = Trace of Precipitation, MM = Missing Value Source: NWS Daily Summary

Daily Weather History Graph

Daily Weather History Graph

Search for Another Location

Airport:

Trip Planner

Search our weather history database for the weather conditions in past years. The results will help you decide how hot, cold, wet, or windy it might be!

Date:

Astronomy

Nov. 14, 2013 Rise Set
Actual Time 7:57 AM CST 5:16 PM CST
Civil Twilight 7:24 AM CST 5:50 PM CST
Nautical Twilight 6:46 AM CST 6:27 PM CST
Astronomical Twilight 6:10 AM CST 7:04 PM CST
Moon 3:49 PM CST (11/14) 4:43 AM CST (11/14)
Length of Visible Light 10h 26m
Length of Day
9h 19m
Waxing Gibbous, 92% of the Moon is Illuminated
Nov 14
Waxing Gibbous
Nov 17
Full
Nov 25
Last Quarter
Dec 2
New
Dec 9
First Quarter

Hourly Weather History & Observations

Time (CST) Temp. Windchill Dew Point Humidity Pressure Visibility Wind Dir Wind Speed Gust Speed Precip Events Conditions
12:15 AM 41.0 °F 34.7 °F 32.0 °F 70% 29.87 in 10.0 mi WNW 10.4 mph - N/A   Mostly Cloudy
12:35 AM 39.2 °F 34.2 °F 32.0 °F 75% 29.86 in 10.0 mi WNW 6.9 mph - N/A   Partly Cloudy
12:55 AM 37.4 °F 32.8 °F 32.0 °F 81% 29.87 in 10.0 mi West 5.8 mph - N/A   Scattered Clouds
1:15 AM 37.4 °F 30.8 °F 32.0 °F 81% 29.87 in 10.0 mi West 9.2 mph - N/A   Partly Cloudy
1:35 AM 35.6 °F 30.7 °F 32.0 °F 87% 29.87 in 10.0 mi West 5.8 mph - N/A   Mostly Cloudy
1:55 AM 33.8 °F 29.6 °F 32.0 °F 93% 29.88 in 10.0 mi SW 4.6 mph - N/A   Overcast
2:15 AM 32.0 °F 27.5 °F 30.2 °F 93% 29.88 in 10.0 mi SSW 4.6 mph - N/A   Overcast
2:35 AM 32.0 °F 26.4 °F 30.2 °F 93% 29.88 in 10.0 mi SSW 5.8 mph - N/A   Scattered Clouds
2:55 AM 32.0 °F 26.4 °F 30.2 °F 93% 29.88 in 10.0 mi SW 5.8 mph - N/A   Scattered Clouds
3:15 AM 32.0 °F 24.2 °F 30.2 °F 93% 29.88 in 10.0 mi SW 9.2 mph - N/A   Partly Cloudy
3:35 AM 32.0 °F 26.4 °F 32.0 °F 100% 29.88 in 10.0 mi SW 5.8 mph - N/A   Scattered Clouds
3:55 AM 32.0 °F 24.8 °F 32.0 °F 100% 29.88 in 10.0 mi WSW 8.1 mph - N/A   Clear
4:15 AM 32.0 °F 26.4 °F 30.2 °F 93% 29.87 in 10.0 mi SW 5.8 mph - N/A   Clear
4:35 AM 32.0 °F 26.4 °F 28.4 °F 87% 29.87 in 10.0 mi SW 5.8 mph - N/A   Clear
4:55 AM 32.0 °F - 28.4 °F 87% 29.87 in 10.0 mi Calm Calm - N/A   Clear
5:15 AM 32.0 °F 28.7 °F 28.4 °F 87% 29.87 in 10.0 mi SSE 3.5 mph - N/A   Clear
5:35 AM 32.0 °F 27.5 °F 30.2 °F 93% 29.87 in 10.0 mi SSW 4.6 mph - N/A   Clear
5:55 AM 30.2 °F 26.7 °F 28.4 °F 93% 29.87 in 10.0 mi SW 3.5 mph - N/A   Clear
6:15 AM 30.2 °F - 28.4 °F 93% 29.87 in 10.0 mi Calm Calm - N/A   Clear
6:35 AM 32.0 °F 26.4 °F 30.2 °F 93% 29.87 in 10.0 mi West 5.8 mph - N/A   Clear
6:55 AM 32.0 °F 25.6 °F 28.4 °F 87% 29.86 in 10.0 mi SSW 6.9 mph - N/A   Clear
7:15 AM 32.0 °F 26.4 °F 28.4 °F 87% 29.85 in 10.0 mi South 5.8 mph - N/A   Clear
7:35 AM 32.0 °F 24.2 °F 30.2 °F 93% 29.85 in 10.0 mi SSW 9.2 mph - N/A   Clear
7:55 AM 32.0 °F 24.2 °F 30.2 °F 93% 29.85 in 10.0 mi SSW 9.2 mph - N/A   Clear
8:15 AM 32.0 °F 24.2 °F 30.2 °F 93% 29.85 in 10.0 mi SW 9.2 mph - N/A   Clear
8:35 AM 32.0 °F 24.2 °F 30.2 °F 93% 29.84 in 10.0 mi SW 9.2 mph - N/A   Clear
8:55 AM 32.0 °F 23.0 °F 32.0 °F 100% 29.83 in 10.0 mi SW 11.5 mph - N/A   Clear
9:15 AM 32.0 °F 24.2 °F 32.0 °F 100% 29.84 in 10.0 mi WSW 9.2 mph - N/A   Clear
9:35 AM 35.6 °F 30.7 °F 32.0 °F 87% 29.83 in 10.0 mi SW 5.8 mph - N/A   Partly Cloudy
9:55 AM 35.6 °F 29.2 °F 32.0 °F 87% 29.83 in 10.0 mi WSW 8.1 mph - N/A   Clear
10:15 AM 35.6 °F 29.2 °F 32.0 °F 87% 29.83 in 10.0 mi WSW 8.1 mph - N/A   Clear
10:35 AM 35.6 °F 29.9 °F 32.0 °F 87% 29.83 in 10.0 mi SW 6.9 mph - N/A   Clear
10:55 AM 37.4 °F 31.4 °F 32.0 °F 81% 29.83 in 10.0 mi WSW 8.1 mph - N/A   Scattered Clouds
11:15 AM 41.0 °F 34.7 °F 32.0 °F 70% 29.82 in 10.0 mi West 10.4 mph - N/A   Partly Cloudy
11:35 AM 41.0 °F 34.7 °F 32.0 °F 70% 29.81 in 10.0 mi West 10.4 mph 18.4 mph N/A   Clear
11:55 AM 41.0 °F 33.9 °F 30.2 °F 65% 29.79 in 10.0 mi WSW 12.7 mph 19.6 mph N/A   Clear
12:15 PM 41.0 °F 34.3 °F 30.2 °F 65% 29.79 in 10.0 mi West 11.5 mph - N/A   Scattered Clouds
12:35 PM 42.8 °F 36.6 °F 30.2 °F 61% 29.79 in 10.0 mi WNW 11.5 mph 16.1 mph N/A   Scattered Clouds
12:55 PM 42.8 °F 36.2 °F 30.2 °F 61% 29.79 in 10.0 mi West 12.7 mph - N/A   Clear
1:15 PM 42.8 °F 38.0 °F 30.2 °F 61% 29.78 in 10.0 mi West 8.1 mph - N/A   Clear
1:35 PM 44.6 °F 38.8 °F 30.2 °F 57% 29.78 in 10.0 mi West 11.5 mph - N/A   Clear
1:55 PM 44.6 °F 39.7 °F 30.2 °F 57% 29.78 in 10.0 mi WNW 9.2 mph - N/A   Clear
2:15 PM 46.4 °F 42.4 °F 32.0 °F 57% 29.78 in 10.0 mi West 8.1 mph - N/A   Clear
2:35 PM 48.2 °F - 32.0 °F 54% 29.77 in 10.0 mi WNW 9.2 mph - N/A   Scattered Clouds
2:55 PM 46.4 °F 41.5 °F 32.0 °F 57% 29.76 in 10.0 mi NW 10.4 mph - N/A   Mostly Cloudy
3:15 PM 46.4 °F 41.9 °F 32.0 °F 57% 29.76 in 10.0 mi NW 9.2 mph - N/A   Partly Cloudy
3:35 PM 44.6 °F 39.2 °F 32.0 °F 61% 29.76 in 10.0 mi West 10.4 mph - N/A   Clear
3:55 PM 46.4 °F 41.5 °F 32.0 °F 57% 29.76 in 10.0 mi West 10.4 mph - N/A   Clear
4:15 PM 46.4 °F 40.7 °F 32.0 °F 57% 29.76 in 10.0 mi West 12.7 mph - N/A   Clear
4:35 PM 44.6 °F 40.7 °F 32.0 °F 61% 29.75 in 10.0 mi West 6.9 mph - N/A   Clear
4:55 PM 41.0 °F 37.1 °F 30.2 °F 65% 29.75 in 10.0 mi West 5.8 mph - N/A   Clear
5:15 PM 39.2 °F 35.0 °F 28.4 °F 65% 29.75 in 10.0 mi West 5.8 mph - N/A   Clear
5:35 PM 37.4 °F 33.8 °F 28.4 °F 70% 29.75 in 10.0 mi WSW 4.6 mph - N/A   Clear
5:55 PM 32.0 °F 27.5 °F 26.6 °F 80% 29.74 in 10.0 mi SSW 4.6 mph - N/A   Clear
6:15 PM 30.2 °F 23.4 °F 26.6 °F 86% 29.74 in 10.0 mi SSW 6.9 mph - N/A   Clear
6:35 PM 32.0 °F - 26.6 °F 80% 29.75 in 10.0 mi Calm Calm - N/A   Clear
6:55 PM 28.4 °F - 24.8 °F 86% 29.74 in 10.0 mi Calm Calm - N/A   Clear
7:15 PM 26.6 °F - 24.8 °F 93% 29.75 in 10.0 mi Calm Calm - N/A   Clear
7:35 PM 26.6 °F - 24.8 °F 93% 29.75 in 10.0 mi Calm Calm - N/A   Clear
7:55 PM 26.6 °F - 24.8 °F 93% 29.75 in 10.0 mi Calm Calm - N/A   Clear
8:15 PM 24.8 °F 16.9 °F 23.0 °F 93% 29.75 in 10.0 mi North 6.9 mph - N/A   Clear
8:35 PM 24.8 °F - 24.8 °F 100% 29.75 in 10.0 mi Calm Calm - N/A   Clear
8:55 PM 24.8 °F - 23.0 °F 93% 29.74 in 10.0 mi Calm Calm - N/A   Clear
9:15 PM 26.6 °F - 24.8 °F 93% 29.74 in 10.0 mi Calm Calm - N/A   Clear
9:35 PM 23.0 °F - 23.0 °F 100% 29.73 in 10.0 mi Calm Calm - N/A   Clear
9:55 PM 23.0 °F 15.8 °F 23.0 °F 100% 29.72 in 10.0 mi SW 5.8 mph - N/A   Clear
10:15 PM 23.0 °F - 21.2 °F 93% 29.72 in 10.0 mi Calm Calm - N/A   Clear
10:35 PM 23.0 °F - 21.2 °F 93% 29.71 in 10.0 mi Calm Calm - N/A   Clear
10:55 PM 21.2 °F - 19.4 °F 93% 29.70 in 10.0 mi Calm Calm - N/A   Clear
11:15 PM 21.2 °F - 19.4 °F 93% 29.69 in 10.0 mi Calm Calm - N/A   Clear
11:35 PM 23.0 °F - 21.2 °F 93% 29.69 in 10.0 mi Calm Calm - N/A   Clear
11:55 PM 19.4 °F - 17.6 °F 93% 29.69 in 10.0 mi Calm Calm - N/A   Clear